Погода в Лучегорске

Россия / Приморский край     46°26′42″N   134°17′47″E
темп.,
°C
ветер,
м/с
пор.,
м/с
влажн.,
%
обл.,
%
осадки,
мм/ч
давл.,
гПа
погр.,
м
12 мая, ср
ср1201:00+6св228432 0.0 101814
04:00+5вюв118713 0.0 101810
07:00+7ю138397 0.0 1018130
10:00+12ююв5762100 0.0 1015812
13:00+16ююз71049100 0.0 10141662
16:00+14ю51062100 0.1 10121256
19:00+11зюз3118398 0.8 1012914
22:00+9ююз71482100 1.1 1013883
13 мая, чт
чт1301:00+10ю5127893 0.0 1011860
04:00+7ю3108846 0.0 1010349
07:00+9ююз4128080 0.0 1010787
10:00+13юз7116995 0.0 10091072
13:00+18юз8124845 0.0 10082337
16:00+21зюз8123342 0.0 10063298
19:00+18юз6114014 0.0 1006625
22:00+12зюз235753 0.0 100932
14 мая, пт
пт1401:00+10ююз34715 0.0 100967
04:00+8юз35905 0.0 101084
07:00+9юз13835 0.0 1012103
10:00+16ююз33550 0.0 1012634
13:00+21юз45400 0.0 10101421
16:00+23юз5631100 0.0 10082195
19:00+19ююз4952100 0.0 1008259
22:00+15ююз2252100 0.0 100915
15 мая, сб
сб1501:00+13ююз2463100 0.0 100896
04:00+13ююз2566100 0.0 1007177
07:00+11ю31191100 1.8 1005557
10:00+11ююз41295100 5.3 1003870
13:00+12з5995100 7.5 1003590
16:00+10зюз3788100 9.0 1004472
19:00+12ююз5989100 0.1 1005511
22:00+9ююз41293100 0.3 1006330
16 мая, вс
вс1601:00+9юз51390100 0.0 1006418
04:00+7юз499459 0.0 1006245
07:00+8зюз4791100 0.0 1006213
10:00+14з476183 0.0 10061486
13:00+18зсз574510 0.0 10041955
16:00+20зсз58407 0.0 10022328
19:00+18з35545 0.0 1002116
22:00+12юз226911 0.0 100217